Weather History for KSAV - June, 2014

Change the Weather History Date:

Monday, June 9, 2014

  Actual Average Record
Temperature  
Mean Temperature 84 °F 79 °F  
Max Temperature 94 °F 89 °F 102 °F (1986)
Min Temperature 74 °F 69 °F 57 °F (1997)
Degree Days  
Heating Degree Days 0 0  
Month to date heating degree days 0 0  
Since 1 June heating degree days 0 0  
Since 1 July heating degree days 1682 1812  
Cooling Degree Days 19 14  
Month to date cooling degree days 128 119  
Year to date cooling degree days 617 522  
Since 1 June cooling degree days 128 119  
Growing Degree Days 33 (Base 50)    
Moisture  
Dew Point 71 °F    
Average Humidity 68    
Maximum Humidity 87    
Minimum Humidity 49    
Precipitation  
Precipitation 0.00 in 0.19 in 2.16 in (1962)
Month to date precipitation 1.47 1.62  
Year to date precipitation 17.26 17.88  
Sea Level Pressure  
Sea Level Pressure 29.91 in    
Wind  
Wind Speed 7 mph (SW)    
Max Wind Speed 14 mph    
Max Gust Speed 18 mph    
Visibility 10 miles    
Events      
T = Trace of Precipitation, MM = Missing Value Source: NWS Daily Summary

Daily Weather History Graph

Daily Weather History Graph

Search for Another Location

Airport or City:

Trip Planner

Search our weather history database for the weather conditions in past years. The results will help you decide how hot, cold, wet, or windy it might be!

Date:

Astronomy

Jun. 09, 2014 Rise Set
Actual Time 6:17 AM EDT 8:30 PM EDT
Civil Twilight 5:49 AM EDT 8:58 PM EDT
Nautical Twilight 5:15 AM EDT 9:33 PM EDT
Astronomical Twilight 4:38 AM EDT 10:10 PM EDT
Moon 5:00 PM EDT (6/9) 3:31 AM EDT (6/9)
Length of Visible Light 15h 08m
Length of Day
14h 12m
Waxing Gibbous, 85% of the Moon is Illuminated
Jun 9
Waxing Gibbous
Jun 13
Full
Jun 19
Last Quarter
Jun 27
New
Jul 5
First Quarter

Hourly Weather History & Observations

Time (EDT) Temp. Heat Index Dew Point Humidity Pressure Visibility Wind Dir Wind Speed Gust Speed Precip Events Conditions
12:53 AM 78.1 °F - 73.9 °F 87% 29.92 in 10.0 mi SSW 8.1 mph - N/A   Partly Cloudy
1:53 AM 78.1 °F - 72.0 °F 81% 29.90 in 10.0 mi SW 5.8 mph - N/A   Clear
2:53 AM 77.0 °F - 71.1 °F 82% 29.88 in 10.0 mi SW 4.6 mph - N/A   Clear
3:53 AM 75.9 °F - 71.1 °F 85% 29.87 in 10.0 mi SW 4.6 mph - N/A   Clear
4:53 AM 75.0 °F - 70.0 °F 84% 29.88 in 10.0 mi West 6.9 mph - N/A   Clear
5:53 AM 73.9 °F - 69.1 °F 85% 29.89 in 10.0 mi WSW 6.9 mph - N/A   Scattered Clouds
6:53 AM 73.9 °F - 68.0 °F 82% 29.91 in 10.0 mi WSW 5.8 mph - N/A   Scattered Clouds
7:53 AM 75.9 °F - 69.1 °F 79% 29.94 in 10.0 mi West 8.1 mph - N/A   Scattered Clouds
8:53 AM 80.1 °F 83.2 °F 70.0 °F 71% 29.94 in 10.0 mi West 9.2 mph - N/A   Scattered Clouds
9:53 AM 82.9 °F 87.5 °F 71.1 °F 67% 29.94 in 10.0 mi WNW 6.9 mph - N/A   Scattered Clouds
10:53 AM 86.0 °F 92.2 °F 72.0 °F 63% 29.94 in 10.0 mi West 5.8 mph - N/A   Scattered Clouds
11:53 AM 89.1 °F 96.0 °F 72.0 °F 57% 29.95 in 10.0 mi West 12.7 mph - N/A   Mostly Cloudy
12:53 PM 91.0 °F 98.2 °F 72.0 °F 53% 29.94 in 10.0 mi West 9.2 mph - N/A   Scattered Clouds
1:53 PM 91.9 °F 99.5 °F 72.0 °F 52% 29.93 in 10.0 mi WNW 9.2 mph - N/A   Mostly Cloudy
3:53 PM 91.9 °F 97.4 °F 70.0 °F 48% 29.90 in 10.0 mi West 6.9 mph - N/A   Mostly Cloudy
4:53 PM 91.0 °F 97.6 °F 71.1 °F 52% 29.89 in 10.0 mi SSW 4.6 mph - N/A   Mostly Cloudy
5:53 PM 93.0 °F 100.1 °F 71.1 °F 49% 29.88 in 10.0 mi Variable 3.5 mph - N/A   Scattered Clouds
6:53 PM 91.9 °F 97.4 °F 70.0 °F 48% 29.88 in 10.0 mi WSW 6.9 mph - N/A   Scattered Clouds
7:53 PM 90.0 °F 95.4 °F 70.0 °F 52% 29.89 in 10.0 mi South 6.9 mph - N/A   Scattered Clouds
8:53 PM 84.9 °F 93.3 °F 75.0 °F 72% 29.91 in 10.0 mi South 9.2 mph - N/A   Scattered Clouds
9:53 PM 82.9 °F 90.8 °F 75.9 °F 79% 29.93 in 10.0 mi South 10.4 mph - N/A   Partly Cloudy
10:53 PM 82.0 °F 88.6 °F 75.0 °F 79% 29.95 in 10.0 mi South 10.4 mph - N/A   Partly Cloudy
11:53 PM 81.0 °F 86.7 °F 75.0 °F 82% 29.96 in 10.0 mi SSW 9.2 mph - N/A   Scattered Clouds